FW8733 Weather Reports


time (UTC)temp
C
wind
direction
speed
KPH
gust
KPH
rain 1hr
cm
rain 24hr
cm
rain mn
cm
humidity
%
barometer
mb
20260503192622 26 196 4.8 4.8 0.00 0.00 0.00 40 1023.6
20260503192118 26 215 9.7 12.9 0.00 0.00 0.00 36 1023.6
20260503191615 26 196 4.8 4.8 0.00 0.00 0.00 36 1023.5
20260503191112 26 221 1.6 1.6 0.00 0.00 0.00 37 1023.7
20260503190609 26 172 8.0 9.7 0.00 0.00 0.00 38 1023.6
20260503190106 27 181 6.4 8.0 0.00 0.00 0.00 34 1023.9
20260503185603 26 212 6.4 11.3 0.00 0.00 0.00 35 1024.2
20260503185102 26 218 0.0 0.0 0.00 0.00 0.00 37 1024.0
20260503184558 26 158 11.3 12.9 0.00 0.00 0.00 35 1024.3
20260503184055 26 176 6.4 8.0 0.00 0.00 0.00 34 1024.1
20260503183551 26 227 4.8 4.8 0.00 0.00 0.00 35 1024.5
20260503183049 26 228 3.2 4.8 0.00 0.00 0.00 38 1024.3
20260503182547 26 198 6.4 8.0 0.00 0.00 0.00 35 1024.7
20260503182045 26 197 4.8 8.0 0.00 0.00 0.00 35 1024.5
20260503181541 26 176 0.0 0.0 0.00 0.00 0.00 41 1024.8
20260503181038 26 185 9.7 11.3 0.00 0.00 0.00 37 1024.8
20260503180535 26 130 8.0 11.3 0.00 0.00 0.00 35 1025.0
20260503180032 26 209 0.0 1.6 0.00 0.00 0.00 40 1024.9
20260503175530 26 170 4.8 8.0 0.00 0.00 0.00 41 1025.2
20260503175027 26 177 4.8 11.3 0.00 0.00 0.00 42 1025.3
20260503174524 26 196 8.0 11.3 0.00 0.00 0.00 40 1025.5
20260503174020 26 224 1.6 3.2 0.00 0.00 0.00 39 1025.4
20260503173515 25 219 8.0 12.9 0.00 0.00 0.00 41 1025.8
20260503173012 25 164 9.7 14.5 0.00 0.00 0.00 44 1025.4
20260503172510 26 214 6.4 11.3 0.00 0.00 0.00 38 1025.2
20260503172006 25 225 4.8 8.0 0.00 0.00 0.00 42 1025.9
20260503171503 25 209 1.6 3.2 0.00 0.00 0.00 46 1025.6
20260503171000 25 191 9.7 11.3 0.00 0.00 0.00 42 1025.9
20260503170456 26 194 8.0 9.7 0.00 0.00 0.00 41 1026.0
20260503150849 21 205 0.0 0.0 0.00 0.00 0.00 65 1026.6
20260503150345 21 248 0.0 1.6 0.00 0.00 0.00 63 1026.8
20260503140309 18 239 1.6 1.6 0.00 0.00 0.00 71 1026.4
20260503131239 12 221 0.0 0.0 0.00 0.00 0.00 99 1026.5
20260503130736 12 240 0.0 0.0 0.00 0.00 0.00 99 1026.3
20260503130233 12 239 0.0 0.0 0.00 0.00 0.00 99 1026.4
20260503120159 10 205 0.0 0.0 0.00 0.00 0.00 99 1025.6
20260503110627 11 205 0.0 0.0 0.00 0.00 0.00 99 1025.1
20260503110124 11 205 0.0 0.0 0.00 0.00 0.00 99 1025.4
20260503081440 12 205 0.0 0.0 0.00 0.00 0.00 99 1025.0
20260503080937 12 205 0.0 0.0 0.00 0.00 0.00 99 1024.7
20260503080433 12 205 0.0 0.0 0.00 0.00 0.00 99 1024.8
20260503072910 12 205 0.0 0.0 0.00 0.00 0.00 97 1025.0
20260503072407 12 205 0.0 0.0 0.00 0.00 0.00 97 1025.1
20260503071904 12 205 0.0 0.0 0.00 0.00 0.00 97 1025.0
20260503071401 13 205 0.0 0.0 0.00 0.00 0.00 97 1025.2
20260503070856 12 205 0.0 0.0 0.00 0.00 0.00 96 1024.9
20260503070355 13 205 0.0 0.0 0.00 0.00 0.00 96 1025.1
20260503060320 13 205 0.0 0.0 0.00 0.00 0.00 90 1025.3
20260503054808 13 205 0.0 0.0 0.00 0.00 0.00 88 1025.2
20260503054304 13 205 0.0 0.0 0.00 0.00 0.00 87 1025.2
20260503053802 13 205 0.0 0.0 0.00 0.00 0.00 87 1025.2
20260503053300 13 205 0.0 0.0 0.00 0.00 0.00 87 1025.3
20260503052756 13 205 0.0 0.0 0.00 0.00 0.00 87 1025.4
20260503052253 13 205 0.0 0.0 0.00 0.00 0.00 87 1025.3
20260503051748 13 205 0.0 0.0 0.00 0.00 0.00 87 1025.3
20260503051246 13 205 0.0 0.0 0.00 0.00 0.00 86 1025.4
20260503050742 13 205 0.0 0.0 0.00 0.00 0.00 86 1025.2
20260503050239 13 205 0.0 0.0 0.00 0.00 0.00 86 1025.1
20260503045736 13 205 0.0 0.0 0.00 0.00 0.00 86 1025.2
20260503045234 13 205 0.0 0.0 0.00 0.00 0.00 87 1025.2
20260503044730 13 205 0.0 0.0 0.00 0.00 0.00 87 1025.1
20260503044228 14 205 0.0 0.0 0.00 0.00 0.00 87 1025.1
20260503043724 14 205 0.0 0.0 0.00 0.00 0.00 86 1025.3
20260503043222 15 205 0.0 0.0 0.00 0.00 0.00 85 1025.3
20260503042717 15 205 0.0 0.0 0.00 0.00 0.00 84 1025.1
20260503042214 15 205 0.0 0.0 0.00 0.00 0.00 82 1025.2
20260503041710 15 205 0.0 0.0 0.00 0.00 0.00 81 1025.2
20260503041208 15 205 0.0 0.0 0.00 0.00 0.00 80 1025.0
20260503040705 14 205 0.0 0.0 0.00 0.00 0.00 81 1025.0
20260503040203 14 205 0.0 0.0 0.00 0.00 0.00 84 1024.9
20260503035659 14 205 0.0 0.0 0.00 0.00 0.00 84 1024.8
20260503035157 15 205 0.0 0.0 0.00 0.00 0.00 84 1024.9
20260503034654 15 205 0.0 0.0 0.00 0.00 0.00 83 1024.9
20260503034151 15 205 0.0 0.0 0.00 0.00 0.00 83 1024.8
20260503033649 15 205 0.0 0.0 0.00 0.00 0.00 83 1024.7
20260503033146 15 205 0.0 0.0 0.00 0.00 0.00 83 1024.7
20260503032644 15 205 0.0 0.0 0.00 0.00 0.00 81 1024.9
20260503032143 15 205 0.0 0.0 0.00 0.00 0.00 79 1024.7
20260503031639 15 205 0.0 0.0 0.00 0.00 0.00 75 1024.8
20260503031137 15 205 0.0 0.0 0.00 0.00 0.00 73 1024.6
20260503030633 16 205 0.0 0.0 0.00 0.00 0.00 70 1024.5
20260503030130 16 205 0.0 0.0 0.00 0.00 0.00 69 1024.5
20260503025626 16 205 0.0 0.0 0.00 0.00 0.00 69 1024.4
20260503025125 16 205 0.0 0.0 0.00 0.00 0.00 71 1024.4
20260503024621 16 204 0.0 0.0 0.00 0.00 0.00 68 1024.4
20260503024118 16 204 0.0 0.0 0.00 0.00 0.00 67 1024.5
20260503023615 16 204 0.0 0.0 0.00 0.00 0.00 67 1024.4
20260503023112 16 205 0.0 0.0 0.00 0.00 0.00 67 1024.4
20260503022607 17 204 0.0 0.0 0.00 0.00 0.00 68 1023.9
20260503022102 17 204 0.0 0.0 0.00 0.00 0.00 67 1023.9
20260503021600 17 204 0.0 0.0 0.00 0.00 0.00 66 1024.0
20260503021056 17 204 0.0 0.0 0.00 0.00 0.00 65 1023.8
20260503020553 17 204 0.0 0.0 0.00 0.00 0.00 63 1023.6
20260503020050 17 204 0.0 0.0 0.00 0.00 0.00 63 1023.7
20260503015547 17 204 0.0 0.0 0.00 0.00 0.00 63 1023.5
20260503015045 17 204 0.0 0.0 0.00 0.00 0.00 63 1023.8
20260503014540 17 204 0.0 0.0 0.00 0.00 0.00 64 1023.7
20260503014038 17 204 0.0 0.0 0.00 0.00 0.00 64 1023.5
20260503013535 17 204 0.0 0.0 0.00 0.00 0.00 63 1023.6
20260503013033 18 204 0.0 0.0 0.00 0.00 0.00 62 1023.5
20260503012530 18 204 0.0 0.0 0.00 0.00 0.00 61 1023.7
20260503012026 18 204 0.0 0.0 0.00 0.00 0.00 61 1023.3
20260503011523 18 205 0.0 0.0 0.00 0.00 0.00 60 1023.6
20260503011021 18 204 0.0 0.0 0.00 0.00 0.00 59 1023.3
20260503010516 19 204 0.0 0.0 0.00 0.00 0.00 59 1023.3
20260503010015 19 204 0.0 0.0 0.00 0.00 0.00 58 1023.3
20260503005511 20 205 0.0 0.0 0.00 0.00 0.00 57 1023.4
20260503005009 20 205 0.0 0.0 0.00 0.00 0.00 57 1023.4
20260503004504 20 205 0.0 0.0 0.00 0.00 0.00 56 1023.3
20260503004003 20 205 0.0 0.0 0.00 0.00 0.00 52 1023.1
20260503003459 20 205 0.0 0.0 0.00 0.00 0.00 51 1023.3
20260503002956 21 205 0.0 0.0 0.00 0.00 0.00 52 1023.2
20260503002453 21 204 0.0 0.0 0.00 0.00 0.00 49 1023.0
20260503001949 21 204 0.0 0.0 0.00 0.00 0.00 50 1023.1
20260503001446 21 205 0.0 0.0 0.00 0.00 0.00 49 1023.0
20260503000944 21 204 0.0 0.0 0.00 0.00 0.00 49 1023.2
20260503000441 21 264 0.0 0.0 0.00 0.00 0.00 45 1023.1
20260502235938 21 204 0.0 1.6 0.00 0.00 0.00 48 1023.1
20260502235435 21 240 0.0 0.0 0.00 0.00 0.00 49 1023.2
20260502234932 22 240 0.0 0.0 0.00 0.00 0.00 46 1023.0
20260502234429 22 240 0.0 0.0 0.00 0.00 0.00 46 1023.0
20260502233926 22 240 0.0 0.0 0.00 0.00 0.00 43 1023.1
20260502233421 22 296 1.6 3.2 0.00 0.00 0.00 43 1023.1
20260502232919 23 207 1.6 1.6 0.00 0.00 0.00 43 1023.1
20260502232414 23 195 0.0 1.6 0.00 0.00 0.00 44 1023.0
20260502231912 23 217 0.0 0.0 0.00 0.00 0.00 43 1023.0
20260502231409 24 265 0.0 0.0 0.00 0.00 0.00 42 1022.9
20260502230907 25 239 0.0 0.0 0.00 0.00 0.00 40 1023.0
20260502230405 24 238 0.0 0.0 0.00 0.00 0.00 41 1023.3
20260502225902 24 267 0.0 1.6 0.00 0.00 0.00 40 1023.1
20260502225358 24 231 4.8 9.7 0.00 0.00 0.00 38 1023.1
20260502224855 24 250 0.0 1.6 0.00 0.00 0.00 43 1023.1
20260502224351 24 213 0.0 1.6 0.00 0.00 0.00 41 1022.9
20260502223849 24 213 0.0 1.6 0.00 0.00 0.00 39 1022.9
20260502223347 24 178 4.8 4.8 0.00 0.00 0.00 44 1023.1
20260502222844 24 221 0.0 0.0 0.00 0.00 0.00 42 1023.1
20260502222342 25 233 0.0 0.0 0.00 0.00 0.00 39 1023.1
20260502221837 25 235 1.6 1.6 0.00 0.00 0.00 38 1023.4
20260502221334 24 186 0.0 0.0 0.00 0.00 0.00 42 1023.0
20260502220831 25 192 3.2 4.8 0.00 0.00 0.00 38 1023.1
20260502220327 24 201 3.2 3.2 0.00 0.00 0.00 43 1023.3
20260502215823 24 214 0.0 0.0 0.00 0.00 0.00 41 1023.3
20260502215321 24 198 8.0 9.7 0.00 0.00 0.00 40 1023.3
20260502214818 24 255 3.2 3.2 0.00 0.00 0.00 38 1023.4
20260502214315 25 199 3.2 3.2 0.00 0.00 0.00 39 1023.2
20260502213812 25 227 1.6 1.6 0.00 0.00 0.00 40 1023.5
20260502213309 25 198 0.0 1.6 0.00 0.00 0.00 43 1023.5
20260502212808 25 290 1.6 1.6 0.00 0.00 0.00 40 1023.4
20260502212306 25 202 1.6 3.2 0.00 0.00 0.00 40 1023.4
20260502211802 25 249 0.0 0.0 0.00 0.00 0.00 39 1023.6
20260502211258 25 203 3.2 4.8 0.00 0.00 0.00 40 1023.5
20260502210755 25 250 0.0 1.6 0.00 0.00 0.00 44 1023.7
20260502210253 25 180 0.0 1.6 0.00 0.00 0.00 43 1023.8
20260502205750 25 255 1.6 3.2 0.00 0.00 0.00 45 1024.2
20260502205246 25 182 4.8 4.8 0.00 0.00 0.00 41 1024.0
20260502204743 25 267 0.0 0.0 0.00 0.00 0.00 39 1024.1
20260502204240 25 254 0.0 0.0 0.00 0.00 0.00 44 1024.2
20260502203738 24 211 0.0 1.6 0.00 0.00 0.00 43 1024.2
20260502203236 25 208 0.0 1.6 0.00 0.00 0.00 43 1024.1
20260502202729 25 227 0.0 1.6 0.00 0.00 0.00 42 1024.3
20260502202228 25 221 4.8 8.0 0.00 0.00 0.00 39 1024.4
20260502201725 25 203 3.2 3.2 0.00 0.00 0.00 48 1024.3
20260502201222 24 255 0.0 0.0 0.00 0.00 0.00 44 1024.4
20260502200718 25 221 0.0 1.6 0.00 0.00 0.00 43 1024.7
20260502200214 25 168 1.6 3.2 0.00 0.00 0.00 42 1024.5
20260502195713 25 243 0.0 0.0 0.00 0.00 0.00 49 1024.5
20260502195209 25 208 0.0 1.6 0.00 0.00 0.00 51 1024.7
20260502194706 25 266 1.6 1.6 0.00 0.00 0.00 50 1024.6
20260502194203 24 238 1.6 1.6 0.00 0.00 0.00 49 1024.8
20260502193658 23 239 1.6 3.2 0.00 0.00 0.00 45 1024.7
20260502193156 23 239 0.0 0.0 0.00 0.00 0.00 46 1024.7